Time,TemperatureF,DewpointF,PressureIn,WindDirection,WindDirectionDegrees,WindSpeedMPH,WindSpeedGustMPH,Humidity,HourlyPrecipIn,Conditions,Clouds,dailyrainin,SoftwareType,DateUTC
2013-04-28 00:03:00,43.0,37.6,30.16,SSW,202,0.0,-999.0,81,-99.99,,,0.00,Acu-Link.com,2013-04-28 04:03:00,
2013-04-28 00:18:00,42.4,37.6,30.16,SSW,202,0.0,-999.0,83,-99.99,,,0.00,Acu-Link.com,2013-04-28 04:18:00,
2013-04-28 00:34:00,41.9,37.1,30.17,East,90,0.0,-999.0,83,-99.99,,,0.00,Acu-Link.com,2013-04-28 04:34:00,
2013-04-28 00:49:00,41.5,37.3,30.16,ESE,112,0.0,-999.0,85,-99.99,,,0.00,Acu-Link.com,2013-04-28 04:49:00,
2013-04-28 01:04:00,41.4,37.2,30.17,SE,135,0.0,-999.0,85,-99.99,,,0.00,Acu-Link.com,2013-04-28 05:04:00,
2013-04-28 01:20:00,41.2,37.3,30.16,SSE,157,1.7,-999.0,86,-99.99,,,0.00,Acu-Link.com,2013-04-28 05:20:00,
2013-04-28 01:35:00,40.6,36.7,30.16,NNW,337,0.0,-999.0,86,-99.99,,,0.00,Acu-Link.com,2013-04-28 05:35:00,
2013-04-28 01:50:00,40.5,36.6,30.16,ESE,112,0.0,-999.0,86,-99.99,,,0.00,Acu-Link.com,2013-04-28 05:50:00,
2013-04-28 02:06:00,40.5,36.9,30.16,South,180,0.0,-999.0,87,-99.99,,,0.00,Acu-Link.com,2013-04-28 06:06:00,
2013-04-28 02:21:00,39.7,36.4,30.16,South,180,0.0,-999.0,88,-99.99,,,0.00,Acu-Link.com,2013-04-28 06:21:00,
2013-04-28 02:36:00,39.7,36.4,30.16,SE,135,0.0,-999.0,88,-99.99,,,0.00,Acu-Link.com,2013-04-28 06:36:00,
2013-04-28 02:51:00,39.4,36.1,30.15,SW,225,0.0,-999.0,88,-99.99,,,0.00,Acu-Link.com,2013-04-28 06:51:00,
2013-04-28 03:07:00,38.7,35.5,30.15,NE,45,0.0,-999.0,88,-99.99,,,0.00,Acu-Link.com,2013-04-28 07:07:00,
2013-04-28 03:22:00,38.3,35.3,30.15,NE,45,1.7,-999.0,89,-99.99,,,0.00,Acu-Link.com,2013-04-28 07:22:00,
2013-04-28 03:37:00,38.5,35.8,30.16,SE,135,0.0,-999.0,90,-99.99,,,0.00,Acu-Link.com,2013-04-28 07:37:00,
2013-04-28 03:52:00,38.1,35.4,30.16,South,180,0.0,-999.0,90,-99.99,,,0.00,Acu-Link.com,2013-04-28 07:52:00,
2013-04-28 04:08:00,37.6,34.9,30.17,WSW,247,0.0,-999.0,90,-99.99,,,0.00,Acu-Link.com,2013-04-28 08:08:00,
2013-04-28 04:23:00,37.9,35.5,30.16,East,90,0.0,-999.0,91,-99.99,,,0.00,Acu-Link.com,2013-04-28 08:23:00,
2013-04-28 04:38:00,37.4,35.0,30.16,SSW,202,0.0,-999.0,91,-99.99,,,0.00,Acu-Link.com,2013-04-28 08:38:00,
2013-04-28 04:53:00,36.5,34.1,30.16,East,90,0.0,-999.0,91,-99.99,,,0.00,Acu-Link.com,2013-04-28 08:53:00,
2013-04-28 05:09:00,36.5,34.4,30.16,West,270,0.0,-999.0,92,-99.99,,,0.00,Acu-Link.com,2013-04-28 09:09:00,
2013-04-28 05:24:00,36.1,34.3,30.16,WSW,247,0.0,-999.0,93,-99.99,,,0.00,Acu-Link.com,2013-04-28 09:24:00,
2013-04-28 05:39:00,36.0,34.2,30.15,ESE,112,0.0,-999.0,93,-99.99,,,0.00,Acu-Link.com,2013-04-28 09:39:00,
2013-04-28 05:55:00,36.0,34.2,30.16,South,180,0.0,-999.0,93,-99.99,,,0.00,Acu-Link.com,2013-04-28 09:55:00,
2013-04-28 06:10:00,35.4,33.6,30.15,SSW,202,0.0,-999.0,93,-99.99,,,0.00,Acu-Link.com,2013-04-28 10:10:00,
2013-04-28 06:25:00,35.4,33.8,30.16,SSW,202,0.0,-999.0,94,-99.99,,,0.00,Acu-Link.com,2013-04-28 10:25:00,
2013-04-28 06:41:00,36.5,34.7,30.17,South,180,0.0,-999.0,93,-99.99,,,0.00,Acu-Link.com,2013-04-28 10:41:00,
2013-04-28 06:56:00,38.8,36.7,30.17,ESE,112,0.0,-999.0,92,-99.99,,,0.00,Acu-Link.com,2013-04-28 10:56:00,
2013-04-28 07:11:00,42.4,40.0,30.18,SE,135,0.0,-999.0,91,-99.99,,,0.00,Acu-Link.com,2013-04-28 11:11:00,
2013-04-28 07:27:00,46.8,40.3,30.18,ESE,112,0.0,-999.0,78,-99.99,,,0.00,Acu-Link.com,2013-04-28 11:27:00,
2013-04-28 07:42:00,47.7,39.5,30.19,ESE,112,0.0,-999.0,73,-99.99,,,0.00,Acu-Link.com,2013-04-28 11:42:00,
2013-04-28 07:57:00,49.8,40.0,30.19,SSE,157,1.7,-999.0,69,-99.99,,,0.00,Acu-Link.com,2013-04-28 11:57:00,
2013-04-28 08:12:00,49.6,40.6,30.18,East,90,1.7,-999.0,71,-99.99,,,0.00,Acu-Link.com,2013-04-28 12:12:00,
2013-04-28 08:28:00,52.3,41.3,30.18,East,90,2.2,-999.0,66,-99.99,,,0.00,Acu-Link.com,2013-04-28 12:28:00,
2013-04-28 08:43:00,55.9,41.8,30.18,NNE,22,0.0,-999.0,59,-99.99,,,0.00,Acu-Link.com,2013-04-28 12:43:00,
2013-04-28 08:58:00,57.9,42.8,30.17,West,270,1.7,-999.0,57,-99.99,,,0.00,Acu-Link.com,2013-04-28 12:58:00,
2013-04-28 09:13:00,58.6,42.5,30.18,ESE,112,2.7,-999.0,55,-99.99,,,0.00,Acu-Link.com,2013-04-28 13:13:00,
2013-04-28 09:28:00,61.0,42.2,30.17,South,180,2.2,-999.0,50,-99.99,,,0.00,Acu-Link.com,2013-04-28 13:28:00,
2013-04-28 09:44:00,63.3,45.4,30.17,East,90,1.1,-999.0,52,-99.99,,,0.00,Acu-Link.com,2013-04-28 13:44:00,
2013-04-28 09:59:00,64.4,40.8,30.17,SW,225,3.2,-999.0,42,-99.99,,,0.00,Acu-Link.com,2013-04-28 13:59:00,
2013-04-28 10:14:00,65.8,42.7,30.16,ESE,112,4.2,-999.0,43,-99.99,,,0.00,Acu-Link.com,2013-04-28 14:14:00,
2013-04-28 10:30:00,67.8,43.2,30.17,West,270,9.9,-999.0,41,-99.99,,,0.00,Acu-Link.com,2013-04-28 14:30:00,
2013-04-28 10:45:00,66.4,42.6,30.17,WNW,292,5.3,-999.0,42,-99.99,,,0.00,Acu-Link.com,2013-04-28 14:45:00,
2013-04-28 11:00:00,65.7,43.2,30.16,South,180,2.7,-999.0,44,-99.99,,,0.00,Acu-Link.com,2013-04-28 15:00:00,
2013-04-28 11:16:00,66.6,44.6,30.16,SSE,157,3.2,-999.0,45,-99.99,,,0.00,Acu-Link.com,2013-04-28 15:16:00,
2013-04-28 11:31:00,68.7,43.4,30.16,West,270,8.9,-999.0,40,-99.99,,,0.00,Acu-Link.com,2013-04-28 15:31:00,
2013-04-28 11:46:00,67.5,43.6,30.15,SSW,202,2.2,-999.0,42,-99.99,,,0.00,Acu-Link.com,2013-04-28 15:46:00,
2013-04-28 12:01:00,69.8,44.4,30.15,SSW,202,4.7,-999.0,40,-99.99,,,0.00,Acu-Link.com,2013-04-28 16:01:00,
2013-04-28 12:16:00,68.5,43.2,30.14,SSE,157,6.8,-999.0,40,-99.99,,,0.00,Acu-Link.com,2013-04-28 16:16:00,
2013-04-28 12:32:00,69.8,43.7,30.13,West,270,5.3,-999.0,39,-99.99,,,0.00,Acu-Link.com,2013-04-28 16:32:00,
2013-04-28 12:52:00,70.7,44.5,30.11,West,270,2.7,-999.0,39,-99.99,,,0.00,Acu-Link.com,2013-04-28 16:52:00,
2013-04-28 13:07:00,71.6,43.2,30.11,WSW,247,5.3,-999.0,36,-99.99,,,0.00,Acu-Link.com,2013-04-28 17:07:00,
2013-04-28 13:23:00,70.7,43.1,30.10,WSW,247,5.3,-999.0,37,-99.99,,,0.00,Acu-Link.com,2013-04-28 17:23:00,
2013-04-28 13:40:00,70.2,42.7,30.09,East,90,3.7,-999.0,37,-99.99,,,0.00,Acu-Link.com,2013-04-28 17:40:00,
2013-04-28 13:55:00,69.6,42.2,30.10,West,270,8.9,-999.0,37,-99.99,,,0.00,Acu-Link.com,2013-04-28 17:55:00,
2013-04-28 14:10:00,68.7,43.4,30.09,SW,225,8.3,-999.0,40,-99.99,,,0.00,Acu-Link.com,2013-04-28 18:10:00,
2013-04-28 14:27:00,68.4,43.8,30.09,West,270,9.4,-999.0,41,-99.99,,,0.00,Acu-Link.com,2013-04-28 18:27:00,
2013-04-28 14:42:00,69.1,44.4,30.08,WSW,247,3.2,-999.0,41,-99.99,,,0.00,Acu-Link.com,2013-04-28 18:42:00,
2013-04-28 15:08:00,69.6,44.2,30.09,SSE,157,10.9,-999.0,40,-99.99,,,0.00,Acu-Link.com,2013-04-28 19:08:00,
2013-04-28 15:23:00,68.9,42.9,30.07,SW,225,3.7,-999.0,39,-99.99,,,0.00,Acu-Link.com,2013-04-28 19:23:00,
2013-04-28 15:40:00,68.4,42.5,30.07,SSW,202,4.7,-999.0,39,-99.99,,,0.00,Acu-Link.com,2013-04-28 19:40:00,
2013-04-28 15:55:00,69.3,41.9,30.05,WSW,247,5.3,-999.0,37,-99.99,,,0.00,Acu-Link.com,2013-04-28 19:55:00,
2013-04-28 16:11:00,69.3,42.6,30.05,WSW,247,1.7,-999.0,38,-99.99,,,0.00,Acu-Link.com,2013-04-28 20:11:00,
2013-04-28 16:26:00,67.8,41.9,30.03,West,270,5.8,-999.0,39,-99.99,,,0.00,Acu-Link.com,2013-04-28 20:26:00,
2013-04-28 16:42:00,68.0,42.1,30.04,SSE,157,2.7,-999.0,39,-99.99,,,0.00,Acu-Link.com,2013-04-28 20:42:00,
2013-04-28 16:57:00,67.1,40.6,30.03,SW,225,4.2,-999.0,38,-99.99,,,0.00,Acu-Link.com,2013-04-28 20:57:00,
2013-04-28 17:13:00,66.7,39.6,30.03,SW,225,1.1,-999.0,37,-99.99,,,0.00,Acu-Link.com,2013-04-28 21:13:00,
2013-04-28 17:28:00,66.6,39.5,30.01,ESE,112,2.2,-999.0,37,-99.99,,,0.00,Acu-Link.com,2013-04-28 21:28:00,
2013-04-28 17:44:00,65.7,37.3,30.02,SE,135,2.7,-999.0,35,-99.99,,,0.00,Acu-Link.com,2013-04-28 21:44:00,
2013-04-28 17:59:00,65.3,36.9,30.02,South,180,3.7,-999.0,35,-99.99,,,0.00,Acu-Link.com,2013-04-28 21:59:00,
2013-04-28 18:15:00,64.8,37.2,30.02,South,180,5.8,-999.0,36,-99.99,,,0.00,Acu-Link.com,2013-04-28 22:15:00,
2013-04-28 18:30:00,64.0,37.2,30.02,SSW,202,5.8,-999.0,37,-99.99,,,0.00,Acu-Link.com,2013-04-28 22:30:00,
2013-04-28 18:45:00,61.5,44.7,30.04,SSE,157,8.3,-999.0,54,-99.99,,,0.00,Acu-Link.com,2013-04-28 22:45:00,
2013-04-28 19:00:00,59.4,45.1,30.03,WNW,292,5.8,-999.0,59,-99.99,,,0.00,Acu-Link.com,2013-04-28 23:00:00,
2013-04-28 19:15:00,57.6,45.9,30.04,WNW,292,7.3,-999.0,65,-99.99,,,0.00,Acu-Link.com,2013-04-28 23:15:00,
2013-04-28 19:30:00,56.1,46.8,30.05,SSW,202,3.2,-999.0,71,-99.99,,,0.00,Acu-Link.com,2013-04-28 23:30:00,
2013-04-28 19:46:00,54.9,46.8,30.05,West,270,10.4,-999.0,74,-99.99,,,0.00,Acu-Link.com,2013-04-28 23:46:00,
2013-04-28 20:01:00,53.8,47.4,30.05,West,270,3.2,-999.0,79,-99.99,,,0.00,Acu-Link.com,2013-04-29 00:01:00,
2013-04-28 20:16:00,53.1,47.4,30.05,SE,135,0.0,-999.0,81,-99.99,,,0.00,Acu-Link.com,2013-04-29 00:16:00,
2013-04-28 20:32:00,52.5,47.5,30.05,South,180,0.0,-999.0,83,-99.99,,,0.01,Acu-Link.com,2013-04-29 00:32:00,
2013-04-28 20:47:00,52.5,47.8,30.06,SE,135,0.0,-999.0,84,-99.99,,,0.01,Acu-Link.com,2013-04-29 00:47:00,
2013-04-28 21:03:00,52.2,47.8,30.06,East,90,0.0,-999.0,85,-99.99,,,0.01,Acu-Link.com,2013-04-29 01:03:00,
2013-04-28 21:18:00,52.2,47.5,30.07,South,180,0.0,-999.0,84,-99.99,,,0.01,Acu-Link.com,2013-04-29 01:18:00,
2013-04-28 21:33:00,52.3,47.6,30.07,SSE,157,1.1,-999.0,84,-99.99,,,0.01,Acu-Link.com,2013-04-29 01:33:00,
2013-04-28 21:48:00,52.7,47.4,30.07,SSE,157,3.2,-999.0,82,-99.99,,,0.01,Acu-Link.com,2013-04-29 01:48:00,
2013-04-28 22:04:00,52.5,47.2,30.06,North,0,1.7,-999.0,82,-99.99,,,0.01,Acu-Link.com,2013-04-29 02:04:00,
2013-04-28 22:19:00,52.5,47.2,30.06,ESE,112,3.2,-999.0,82,-99.99,,,0.01,Acu-Link.com,2013-04-29 02:19:00,
2013-04-28 22:34:00,52.5,47.8,30.05,ESE,112,3.2,-999.0,84,-99.99,,,0.01,Acu-Link.com,2013-04-29 02:34:00,
2013-04-28 22:50:00,52.5,47.5,30.05,East,90,2.7,-999.0,83,-99.99,,,0.01,Acu-Link.com,2013-04-29 02:50:00,
2013-04-28 23:05:00,52.5,47.2,30.05,ESE,112,2.7,-999.0,82,-99.99,,,0.01,Acu-Link.com,2013-04-29 03:05:00,
2013-04-28 23:20:00,52.9,47.2,30.05,East,90,3.7,-999.0,81,-99.99,,,0.01,Acu-Link.com,2013-04-29 03:20:00,
2013-04-28 23:35:00,53.1,46.8,30.04,East,90,2.2,-999.0,79,-99.99,,,0.01,Acu-Link.com,2013-04-29 03:35:00,
2013-04-28 23:51:00,53.6,46.6,30.05,ESE,112,1.7,-999.0,77,-99.99,,,0.01,Acu-Link.com,2013-04-29 03:51:00,